Location: Gard�res
(43.2833°N, 0.1167°W)
Time: 18:22:48
(UTC+00:00)

Daily predictions for brighter satellites

Satellite Brightness Start Highest point End
(mag) Time Altitude Azimuth Time Altitude Azimuth Time Altitude Azimuth
SL-27 R/B 4.0 19:44:32 10° SE 19:47:03 18° E 19:49:35 10° NE
CSL-04 Rocket 4.4 19:44:27 10° S 19:49:44 56° W 19:54:59 10° NNW
Cosmos 2333 Rocket 4.0 19:47:40 10° N 19:51:28 18° NE 19:55:15 10° E
BREEZE-M DEB (TANK) 2.3 19:49:07 10° WNW 19:51:45 67° NNE 19:57:43 10° ESE
Cosmos 2322 Rocket 2.5 19:48:38 10° NNW 19:54:09 53° ENE 19:59:37 10° SE
CZ-4 R/B 4.3 19:52:21 10° SW 19:55:03 17° W 19:57:45 10° NW
IRS-1A Rocket 4.4 19:50:30 10° SSE 19:55:53 59° ENE 20:01:18 10° N
BREEZE-M R/B 4.4 19:52:40 10° SSW 19:58:13 22° SSE 20:01:17 10° E
Cosmos 923 Rocket 4.0 19:53:24 10° SSW 19:58:43 77° ESE 20:04:05 10° NNE
OBJECT-B 1.6 19:56:09 10° S 19:59:18 53° W 20:02:27 10° NNW
SL-12 R/B (Aux Motor) 4.3 20:00:44 10° WNW 20:02:54 67° SSW 20:07:22 11° ESE
BREEZE-M DEB (TANK) 3.4 20:01:10 10° WNW 20:04:13 81° NNE 20:12:58 11° ESE
Cosmos 2219 Rocket 3.9 20:01:51 10° N 20:05:41 18° NE 20:09:31 10° E
SJ-6B 3.3 20:02:16 10° S 20:05:56 59° W 20:09:41 10° NNW
Meteor 2-15 4.4 20:00:00 10° N 20:06:06 84° E 20:12:09 10° S
Resurs 1-3 3.6 20:02:02 10° SSE 20:06:23 73° ENE 20:10:46 10° N
Atlas Centaur 2 4.2 20:07:49 10° SW 20:08:31 10° SSW 20:09:12 10° SSW
USA 276 4.1 20:06:37 10° W 20:09:03 21° SW 20:11:29 10° S
Cosmos 2056 Rocket 4.1 20:06:00 10° N 20:11:04 42° ENE 20:15:29 13° SE
ATLAS 5 CENTAUR R/B 3.9 20:07:22 10° NNW 20:11:26 21° NE 20:16:01 10° E
USA 186 3.8 20:11:04 10° SSW 20:13:19 22° W 20:15:28 10° NW
SPOT 1/Viking Rocket 4.3 20:14:27 13° SE 20:18:40 36° ENE 20:23:26 10° N
Cosmos 1092 Rocket 4.0 20:14:01 10° S 20:20:17 83° E 20:26:40 10° N
NOSS 2-1 (E) 2.8 20:17:26 10° SW 20:20:46 89° SE 20:24:06 10° NE
Cosmos 2026 Rocket 4.0 20:17:42 10° S 20:23:58 72° E 20:30:11 10° NNE
IGS 5A 3.4 20:23:13 12° SSE 20:27:03 70° ENE 20:31:12 10° N
CZ-2C R/B 4.4 20:23:32 10° NE 20:27:30 31° E 20:30:27 15° SSE
Meteor 2-15 Rocket 4.5 20:21:37 10° N 20:27:42 85° W 20:33:46 10° S
SL-16 R/B 2.5 20:22:06 10° NNW 20:27:44 66° WSW 20:33:19 10° SSE
GP-B 3.5 20:26:00 10° NNE 20:30:16 45° E 20:33:39 15° SSE
Cosmos 1680 Rocket 3.8 20:25:56 10° SSW 20:31:11 75° WNW 20:36:27 10° NNE
Meteor 1-26 Rocket 4.3 20:26:02 10° NNW 20:31:55 84° W 20:37:34 10° S
Cosmos 1151 Rocket 3.1 20:28:18 10° N 20:32:39 63° E 20:36:06 16° SSE
Cosmos 2112 Rocket 4.1 20:27:43 10° SSW 20:33:01 84° WNW 20:38:18 10° NNE
Lacrosse 5 3.3 20:33:37 17° ESE 20:33:37 17° ESE 20:36:26 10° E
Cosmos 1371 Rocket 4.1 20:28:03 10° NNW 20:33:27 74° ENE 20:37:42 16° SSE
NOSS 3-1 (C) 4.4 20:26:52 10° NNW 20:34:11 57° NE 20:40:55 17° ESE
Okean 3 Rocket 3.6 20:31:21 10° S 20:35:47 65° E 20:40:17 10° NNE
Cosmos 1271 Rocket 3.5 20:32:43 10° NNW 20:36:40 55° W 20:40:33 10° S
MetOp-B 4.2 20:36:35 16° SSE 20:40:49 65° ENE 20:46:08 10° N
ERS-2 2.4 20:38:54 10° N 20:42:32 69° WNW 20:46:08 10° SSW
COSMOS 2487 3.5 20:45:40 24° E 20:45:40 24° E 20:48:20 10° NE
Cosmos 2237 4.3 20:40:13 10° NNW 20:45:57 81° WSW 20:50:20 18° SSE
Cosmos 1515 Rocket 4.1 20:45:45 10° N 20:49:55 40° ENE 20:51:44 27° SE
COSMOS 2428 3.8 20:45:44 10° N 20:50:47 31° NE 20:53:52 19° ESE
GEOS 3 Rocket 4.5 20:46:16 10° NNE 20:51:19 53° NW 20:56:17 10° WSW
COSMOS 2455 2.9 20:45:32 10° S 20:51:21 55° ESE 20:57:12 10° NE
Terra 3.2 20:54:31 20° E 20:56:16 24° ENE 21:00:04 10° NNE
Ariane Rocket 4.0 20:52:05 10° S 20:56:53 43° W 21:01:42 10° NNW
Cosmos 1809 Rocket 4.4 20:51:06 10° S 20:57:16 87° E 21:03:25 10° N
Cosmos 292 Rocket 3.8 20:52:46 10° NNW 20:57:32 67° ENE 20:59:58 28° SE
Cosmos 1328 Rocket 3.5 20:54:33 10° N 20:59:01 89° WSW 21:01:43 23° S
Cosmos 2360 Rocket 2.2 20:55:21 10° NNW 21:01:01 79° WSW 21:04:37 23° SSE
Cosmos 1766 Rocket 4.0 20:58:04 10° SSW 21:02:23 61° W 21:06:43 10° N
SPOT 3 Rocket 3.8 20:59:52 17° S 21:03:56 70° WSW 21:09:09 10° NNW
Cosmos 972 Rocket 4.4 21:01:58 27° SSE 21:04:08 40° E 21:08:45 10° NNE
Cosmos 1174 3.1 21:03:23 10° NW 21:06:22 78° WSW 21:06:57 54° SSE
Resurs 01 Rocket 2.6 21:05:14 13° SSW 21:08:57 43° W 21:13:13 10° NNW
Cosmos 1624 Rocket 4.4 21:06:16 10° NNW 21:11:23 58° WSW 21:14:45 21° S
Cosmos 2266 Rocket 4.2 21:09:42 26° SSE 21:13:03 53° E 21:19:08 10° NNE
NOSS 3-1 (A) 4.3 21:05:38 10° NNW 21:13:03 60° NE 21:18:16 25° ESE
Meteor 2-6 Rocket 4.1 21:07:51 10° NNW 21:13:15 83° W 21:16:31 25° S
Cosmos 1420 Rocket 4.0 21:11:08 10° NNW 21:16:28 79° WSW 21:19:08 30° S
Cosmos 1812 3.2 21:13:32 10° NNW 21:17:20 57° W 21:19:06 28° SSW
Cosmos 1553 Rocket 4.0 21:12:18 10° N 21:18:23 77° W 21:22:39 21° S
Cosmos 1862 3.7 21:16:10 19° SSW 21:18:55 63° W 21:22:53 10° N
Meteor 2-21 Rocket 4.4 21:16:32 16° S 21:21:35 86° E 21:27:46 10° N
ERS-1 Rocket 3.1 21:20:13 37° SE 21:22:03 60° ENE 21:27:00 10° N
Cosmos 2228 Rocket 3.7 21:22:09 10° N 21:26:20 39° ENE 21:26:53 37° E
Cosmos 2297 Rocket 3.8 21:31:26 18° E 21:31:26 18° E 21:34:09 10° NE
Cosmos 2285 Rocket 4.1 21:24:20 10° NNW 21:30:35 61° ENE 21:33:03 36° SE
Cosmos 1805 Rocket 4.1 21:31:35 40° E 21:31:36 40° E 21:35:44 10° NNE
SPOT 5 2.5 21:31:58 52° SE 21:32:58 75° ENE 21:37:28 10° N
ARIANE 5 R/B 2.5 21:31:52 47° SSE 21:33:08 89° W 21:37:33 10° NNW
BREEZE-M DEB (TANK) 3.1 21:27:42 10° WNW 21:33:37 46° N 21:34:36 33° ENE
Cosmos 2315 Rocket 4.3 21:29:12 10° N 21:35:26 54° ENE 21:37:36 38° SE
Cosmos 2333 Rocket 2.1 21:30:48 10° NNW 21:36:29 84° WSW 21:38:33 41° SSE
Cosmos 2322 Rocket 4.1 21:33:28 10° NW 21:37:47 23° W 21:41:54 11° SSW
Cosmos 2237 Rocket 3.5 21:33:44 10° N 21:38:36 28° NE 21:40:34 23° E
Cosmos 2322 3.7 21:33:43 10° NNW 21:39:28 84° WSW 21:41:30 42° SSE
Cosmos 1500 Rocket 3.5 21:40:12 48° S 21:41:24 87° W 21:45:52 10° N
Cosmos 1452 Rocket 3.4 21:37:44 10° NNW 21:43:02 89° ENE 21:44:29 49° SSE
Cosmos 2227 Rocket 3.9 21:44:50 16° ENE 21:44:50 16° ENE 21:47:01 10° ENE
Cosmos 2219 Rocket 2.1 21:44:43 10° NNW 21:50:20 80° WSW 21:51:54 49° S
S3M 4.4 21:46:39 10° NNW 21:52:57 63° W 21:56:13 30° SSW
Sich 1 3.4 21:53:27 49° ENE 21:53:27 49° ENE 21:57:14 10° NNE
Spot 2 Rocket 4.2 21:54:15 31° SSW 21:56:15 46° W 22:01:10 10° NNW
ATLAS 5 CENTAUR R/B 2.3 21:51:05 10° NW 21:56:46 84° NE 21:58:38 49° SE
Cosmos 1331 Rocket 4.1 21:53:43 10° NNW 21:58:53 58° ENE 21:59:36 53° E
Meteor 1-27 Rocket 3.8 21:53:50 10° NNW 21:59:33 74° W 22:01:24 45° S
Cosmos 1110 Rocket 4.0 21:55:01 10° NNW 22:00:20 67° ENE 22:01:08 58° ESE
Cosmos 1743 Rocket 4.2 22:02:46 37° SW 22:04:05 51° WNW 22:08:24 10° N
Cosmos 1633 Rocket 4.3 22:10:51 30° ENE 22:10:51 30° ENE 22:13:40 10° NNE
SL-16 R/B 4.0 22:06:48 10° N 22:10:51 20° NE 22:12:56 16° ENE
Cosmos 494 Rocket 4.0 22:11:18 47° SW 22:12:45 74° WNW 22:17:54 10° NNE
Lacrosse 5 1.8 22:12:22 23° SW 22:15:31 83° NW 22:20:37 10° NE
IRIDIUM 104 4.3 22:13:28 10° N 22:18:42 78° W 22:19:25 65° SSW
APEX 4.4 22:17:43 37° SW 22:20:13 80° WNW 22:26:59 10° NNE
Cosmos 1666 Rocket 4.1 22:21:09 49° NE 22:21:09 49° NE 22:24:41 10° NNE
Nadezhda 2 Rocket 4.4 22:23:48 59° SSE 22:25:02 78° E 22:31:29 10° N
Cosmos 1244 Rocket 4.3 22:30:49 65° SSE 22:31:44 81° E 22:37:59 10° N
Terra 2.7 22:33:23 38° WSW 22:33:47 38° W 22:38:15 10° NNW
Meteor 1-25 Rocket 4.3 22:33:38 58° SW 22:34:37 71° WNW 22:40:11 10° N
COSMOS 2428 3.4 22:29:49 10° NW 22:35:10 43° WSW 22:35:52 41° SW
CZ-4C R/B 4.2 22:29:42 10° NNW 22:35:56 33° NE 22:41:11 17° E
COBE Rocket 4.1 22:36:50 58° NE 22:36:50 58° NE 22:41:04 10° N
Cosmos 2084 Rocket 4.3 22:35:45 10° NW 22:38:56 47° WNW 22:38:56 47° WNW
CZ-3B R/B 2.4 22:32:23 10° NW 22:39:48 64° NNE 22:39:48 64° NNE
Meteor 2-4 Rocket 4.0 22:34:43 10° N 22:40:31 53° ENE 22:40:47 53° E
USA 229 DEB 4.4 22:36:18 10° NW 22:43:22 48° WSW 22:45:02 42° SSW
USA 229 4.4 22:36:23 10° NW 22:43:28 49° WSW 22:45:07 43° SSW
Cosmos 1862 Rocket 4.3 22:42:03 10° N 22:45:19 48° NNE 22:45:19 48° NNE
Cosmos 2219 3.3 22:48:17 66° E 22:48:17 66° E 22:53:34 10° NNE
Meteor 1-18 Rocket 4.1 22:43:17 10° N 22:49:07 90° WSW 22:49:19 84° S
USA 267 3.8 22:43:24 10° ENE 22:48:10 40° E 22:48:10 40° E
Spot 4 4.2 22:52:09 59° NE 22:52:09 59° NE 22:56:24 10° N
Cosmos 1707 Rocket 4.4 22:50:16 10° NNW 22:53:48 46° WNW 22:53:48 46° WNW
Cosmos 1302 Rocket 4.0 22:52:41 10° NNW 22:57:32 76° NW 22:57:32 76° NW
Meteor 1-19 Rocket 4.4 22:55:25 10° NNW 23:00:50 59° W 23:00:53 59° W
SL-08 R/B 4.3 23:00:49 74° SW 23:01:21 83° W 23:07:32 10° N
Cosmos 1980 3.7 22:55:57 10° NNW 23:01:24 68° W 23:01:24 68° W
Cosmos 909 Rocket 4.1 23:02:47 69° SE 23:03:07 70° ESE 23:10:41 10° NE
NOSS 2-2 (D) 4.4 23:03:50 10° NW 23:09:26 80° SW 23:09:49 77° SSW
Cosmos 1269 Rocket 4.2 23:10:35 65° WNW 23:10:35 65° WNW 23:15:47 10° NNE
Cosmos 2297 Rocket 2.4 23:13:12 60° W 23:13:43 63° WNW 23:19:22 10° NNE
Meteor 2-17 Rocket 4.4 23:15:38 72° E 23:15:38 72° E 23:21:31 10° NNE
ALOS 2 3.6 23:23:09 44° N 23:23:09 44° N 23:26:14 10° N
Cosmos 2237 Rocket 2.8 23:17:26 10° NW 23:22:23 47° W 23:22:23 47° W
USA 234 4.2 23:18:04 15° E 23:23:03 43° NNE 23:29:09 10° NW
Cosmos 1709 Rocket 4.1 23:26:19 64° E 23:26:19 64° E 23:32:34 10° NNE
Cosmos 2227 Rocket 2.4 23:26:37 66° WNW 23:26:43 66° WNW 23:32:22 10° NNE
Meteor 1-13 Rocket 4.4 23:23:32 10° N 23:28:50 62° NE 23:28:50 62° NE
Cosmos 2263 Rocket 3.8 23:33:28 23° ENE 23:33:28 23° ENE 23:36:31 10° NE
Cosmos 1745 Rocket 4.1 23:35:14 64° WSW 23:35:38 66° W 23:41:56 10° N
ATLAS 5 CENTAUR R/B 4.2 23:36:56 10° WNW 23:40:09 19° W 23:40:09 19° W
Cosmos 1241 Rocket 4.4 23:44:35 81° WSW 23:44:51 84° WNW 23:51:25 10° NNE
Nadezhda 1 Rocket 4.4 23:44:58 10° NNW 23:51:06 50° W 23:51:16 50° W
Cosmos 44 4.0 23:46:55 10° NNW 23:51:25 53° NNE 23:51:25 53° NNE
Thor Agena Rocket 4.4 23:48:53 10° NNE 23:52:34 42° NE 23:52:34 42° NE
